Location: Newark
(47.5833°N, 8.1500°E)
Time: 11:07:03
(UTC+00:00)

Transit 2A - Pass Details

Date: 29 October 2020
Orbit: 595 x 964 km, 66.7° (Epoch: 27 November)

Event Time Altitude Azimuth Distance (km) Brightness Sun altitude
Rises 06:17:32 0° 323° (NW) 3,562 8.9 0.8°
Reaches altitude 10° 06:21:13 10° 344° (NNW) 2,556 8.4 1.3°
Maximum altitude 06:24:49 16° 22° (NNE) 2,072 8.3 1.9°
Drops below altitude 10° 06:28:14 10° 60° (ENE) 2,404 9.2 2.4°
Sets 06:31:32 0° 82° (E) 3,250 10.4 2.9°
